Weather History for KLWV - February, 2012

Change the Weather History Date:

Saturday, February 11, 2012

  Actual Average Record
Temperature  
Mean Temperature 20 °F 34 °F  
Max Temperature 25 °F 43 °F 71 °F (1999)
Min Temperature 15 °F 26 °F -1 °F (2014)
Degree Days  
Heating Degree Days 45 31  
Month to date heating degree days 298 350  
Since 1 July heating degree days 2674 3201  
Cooling Degree Days 0 0  
Month to date cooling degree days 0 0  
Year to date cooling degree days 0 0  
Moisture  
Dew Point 9 °F    
Average Humidity 60    
Maximum Humidity 74    
Minimum Humidity 45    
Precipitation  
Precipitation T in 0.09 in 2.12 in (2009)
Month to date precipitation 0.51 0.85  
Year to date precipitation 3.90 3.23  
Sea Level Pressure  
Sea Level Pressure 30.35 in    
Wind  
Wind Speed 17 mph (NW)    
Max Wind Speed 30 mph    
Max Gust Speed 37 mph    
Visibility 8 miles    
Events Snow    
T = Trace of Precipitation, MM = Missing Value Source: NWS Daily Summary

Daily Weather History Graph

Daily Weather History Graph

Search for Another Location

Airport or City:

Trip Planner

Search our weather history database for the weather conditions in past years. The results will help you decide how hot, cold, wet, or windy it might be!

Date:

Astronomy

Feb. 11, 2012 Rise Set
Actual Time 6:46 AM CST 5:23 PM CST
Civil Twilight 6:19 AM CST 5:50 PM CST
Nautical Twilight 5:47 AM CST 6:21 PM CST
Astronomical Twilight 5:16 AM CST 6:52 PM CST
Moon 10:06 PM CST (2/11) 8:32 AM CST (2/11)
Length of Visible Light 11h 31m
Length of Day
10h 36m
Waning Gibbous, 82% of the Moon is Illuminated
Feb 11
Waning Gibbous
Feb 14
Last Quarter
Feb 21
New
Feb 29
First Quarter
Mar 8
Full

Hourly Weather History & Observations

Time (CST) Temp. Windchill Dew Point Humidity Pressure Visibility Wind Dir Wind Speed Gust Speed Precip Events Conditions
12:00 AM 23.0 °F 9.2 °F 15.8 °F 74% 30.16 in 2.0 mi NNW 17.3 mph - 0.00 in Snow Light Snow
12:15 AM 21.2 °F 5.6 °F 15.8 °F 80% 30.17 in 6.0 mi NNW 20.7 mph - 0.00 in Snow Light Snow
12:30 AM 21.2 °F 4.5 °F 14.0 °F 74% 30.17 in 2.0 mi NW 24.2 mph 32.2 mph 0.00 in Snow Light Snow
12:49 AM 19.4 °F 2.8 °F 12.2 °F 74% 30.18 in 3.0 mi NNW 21.9 mph 35.7 mph 0.00 in Snow Light Snow
12:53 AM 19.9 °F 3.9 °F 12.9 °F 74% 30.20 in 3.0 mi NNW 20.7 mph 32.2 mph 0.00 in Snow Light Snow
1:33 AM 19.4 °F 4.1 °F 12.2 °F 74% 30.19 in 6.0 mi NNW 18.4 mph 31.1 mph 0.00 in Snow Light Snow
1:53 AM 19.9 °F 3.9 °F 12.0 °F 71% 30.22 in 7.0 mi NNW 20.7 mph - 0.00 in Snow Light Snow
2:53 AM 19.9 °F 3.9 °F 10.9 °F 68% 30.23 in 9.0 mi NNW 20.7 mph 27.6 mph 0.00 in Snow Light Snow
3:53 AM 19.9 °F 5.2 °F 10.9 °F 68% 30.27 in 6.0 mi NNW 17.3 mph 32.2 mph 0.00 in Snow Light Snow
4:02 AM 19.4 °F 2.8 °F 10.4 °F 68% 30.26 in 6.0 mi NNW 21.9 mph 28.8 mph 0.00 in Snow Light Snow
4:20 AM 19.4 °F 2.8 °F 10.4 °F 68% 30.27 in 6.0 mi NNW 21.9 mph 36.8 mph 0.00 in Snow Light Snow
4:53 AM 18.0 °F 1.3 °F 9.0 °F 68% 30.32 in 5.0 mi NNW 20.7 mph 34.5 mph 0.00 in Snow Light Snow
5:53 AM 16.0 °F -1.3 °F 5.0 °F 62% 30.35 in 10.0 mi NW 20.7 mph 26.5 mph 0.00 in   Clear
6:53 AM 15.1 °F -2.5 °F 3.9 °F 61% 30.39 in 10.0 mi NNW 20.7 mph 26.5 mph N/A   Clear
7:53 AM 16.0 °F -0.4 °F 5.0 °F 62% 30.42 in 10.0 mi NNW 18.4 mph 26.5 mph N/A   Clear
8:53 AM 18.0 °F 0.9 °F 5.0 °F 57% 30.44 in 10.0 mi NW 21.9 mph - N/A   Clear
9:53 AM 19.0 °F 4.0 °F 6.1 °F 57% 30.46 in 10.0 mi NW 17.3 mph 27.6 mph N/A   Partly Cloudy
10:53 AM 21.0 °F 5.4 °F 8.1 °F 57% 30.47 in 10.0 mi NW 20.7 mph 27.6 mph N/A   Partly Cloudy
11:53 AM 23.0 °F 7.2 °F 8.1 °F 53% 30.45 in 10.0 mi NW 23.0 mph 28.8 mph N/A   Scattered Clouds
12:53 PM 23.0 °F 8.3 °F 9.0 °F 55% 30.45 in 10.0 mi NNW 19.6 mph 26.5 mph 0.00 in   Mostly Cloudy
1:53 PM 23.0 °F 8.0 °F 9.0 °F 55% 30.44 in 10.0 mi NW 20.7 mph 28.8 mph N/A   Overcast
2:53 PM 24.1 °F 11.0 °F 9.0 °F 53% 30.45 in 10.0 mi NW 16.1 mph 25.3 mph N/A   Overcast
3:53 PM 24.1 °F 12.0 °F 8.1 °F 51% 30.46 in 10.0 mi NW 13.8 mph - N/A   Mostly Cloudy
4:53 PM 24.1 °F 11.5 °F 7.0 °F 48% 30.45 in 10.0 mi NW 15.0 mph - N/A   Partly Cloudy
5:53 PM 23.0 °F 10.6 °F 7.0 °F 50% 30.46 in 10.0 mi WNW 13.8 mph - N/A   Clear
6:53 PM 21.9 °F 10.4 °F 8.1 °F 55% 30.47 in 10.0 mi WNW 11.5 mph - N/A   Clear
7:53 PM 23.0 °F 11.1 °F 6.1 °F 48% 30.48 in 10.0 mi NW 12.7 mph - N/A   Clear
8:53 PM 21.9 °F 10.4 °F 6.1 °F 51% 30.48 in 10.0 mi WNW 11.5 mph - N/A   Clear
9:53 PM 21.9 °F 9.8 °F 6.1 °F 51% 30.48 in 10.0 mi NW 12.7 mph - N/A   Clear
10:53 PM 21.0 °F 8.6 °F 3.9 °F 48% 30.48 in 10.0 mi NW 12.7 mph - N/A   Clear
11:53 PM 21.0 °F 7.1 °F 3.9 °F 48% 30.48 in 10.0 mi NW 16.1 mph - N/A   Clear